Weather History for Olympia, WA

Change the Weather History Date:

Saturday, March 30, 2013

  Actual Average Record
Temperature  
Mean Temperature 51 °F 46 °F  
Max Temperature 68 °F 56 °F 76 °F (1995)
Min Temperature 34 °F 36 °F 22 °F (1954)
Degree Days  
Heating Degree Days 14 19  
Month to date heating degree days 597 617  
Since 1 July heating degree days 4284 4339  
Cooling Degree Days 0 0  
Month to date cooling degree days 0 0  
Year to date cooling degree days 0 0  
Growing Degree Days 1 (Base 50)    
Moisture  
Dew Point 40 °F    
Average Humidity 69    
Maximum Humidity 100    
Minimum Humidity 37    
Precipitation  
Precipitation 0.00 in 0.16 in 0.75 in (1981)
Month to date precipitation 3.88 5.14  
Year to date precipitation 11.83 18.25  
Sea Level Pressure  
Sea Level Pressure 30.20 in    
Wind  
Wind Speed 6 mph (NE)    
Max Wind Speed 16 mph    
Max Gust Speed 20 mph    
Visibility 7 miles    
Events      
T = Trace of Precipitation, MM = Missing Value Source: NWS Daily Summary

Daily Weather History Graph

Daily Weather History Graph

Search for Another Location

Airport:

Trip Planner

Search our weather history database for the weather conditions in past years. The results will help you decide how hot, cold, wet, or windy it might be!

Date:

Astronomy

Mar. 30, 2013 Rise Set
Actual Time 6:54 AM PDT 7:38 PM PDT
Civil Twilight 6:23 AM PDT 8:09 PM PDT
Nautical Twilight 5:46 AM PDT 8:46 PM PDT
Astronomical Twilight 5:08 AM PDT 9:24 PM PDT
Moon No Moon Rise 8:39 AM PDT (3/30)
Length of Visible Light 13h 46m
Length of Day
12h 44m
Waning Gibbous, 85% of the Moon is Illuminated
Mar 30
Waning Gibbous
Apr 2
Last Quarter
Apr 10
New
Apr 18
First Quarter
Apr 25
Full

Hourly Weather History & Observations

Time (PDT) Temp. Windchill Dew Point Humidity Pressure Visibility Wind Dir Wind Speed Gust Speed Precip Events Conditions
12:54 AM 42.1 °F 40.2 °F 39.9 °F 92% 30.26 in 10.0 mi SE 3.5 mph - N/A   Clear
1:54 AM 39.9 °F - 37.9 °F 93% 30.26 in 8.0 mi Calm Calm - N/A   Clear
2:54 AM 39.9 °F - 39.0 °F 97% 30.26 in 9.0 mi Calm Calm - N/A   Clear
3:54 AM 39.0 °F - 37.9 °F 96% 30.25 in 8.0 mi Calm Calm - N/A   Clear
4:13 AM 36.0 °F 33.3 °F 36.0 °F 100% 30.25 in 1.8 mi NNE 3.5 mph - N/A   Clear
4:28 AM 37.9 °F - 37.0 °F 97% 30.24 in 1.0 mi Calm Calm - N/A   Clear
4:33 AM 37.9 °F - 37.0 °F 97% 30.24 in 2.0 mi Calm Calm - N/A   Clear
4:40 AM 37.0 °F - 36.0 °F 96% 30.24 in 8.0 mi Calm Calm - N/A   Clear
4:54 AM 37.0 °F - 36.0 °F 96% 30.25 in 7.0 mi Calm Calm - N/A   Clear
5:25 AM 39.0 °F 35.7 °F 37.9 °F 96% 30.24 in 1.8 mi NNE 4.6 mph - N/A   Clear
5:30 AM 37.9 °F 34.4 °F 37.0 °F 97% 30.24 in 0.8 mi NNE 4.6 mph - N/A   Clear
5:45 AM 37.0 °F - 36.0 °F 96% 30.24 in 1.8 mi Calm Calm - N/A   Clear
5:52 AM 37.4 °F - 35.6 °F 93% 30.24 in 7.0 mi Calm Calm - N/A   Clear
5:54 AM 37.0 °F - 36.0 °F 96% 30.24 in 8.0 mi Calm Calm - N/A   Clear
6:54 AM 36.0 °F - 34.0 °F 93% 30.25 in 8.0 mi Calm Calm - N/A   Clear
7:31 AM 36.0 °F - 35.1 °F 97% 30.24 in 1.8 mi Calm Calm - N/A   Clear
7:42 AM 37.9 °F - 37.0 °F 97% 30.24 in 4.0 mi Calm Calm - N/A   Clear
7:54 AM 37.9 °F - 37.0 °F 97% 30.25 in 6.0 mi Calm Calm - N/A   Partly Cloudy
8:26 AM 44.1 °F 40.8 °F 42.1 °F 93% 30.24 in 6.0 mi NNE 5.8 mph - N/A   Mostly Cloudy
8:54 AM 45.0 °F 41.2 °F 43.0 °F 93% 30.25 in 6.0 mi NNE 6.9 mph - N/A   Overcast
9:54 AM 48.0 °F - 44.1 °F 86% 30.24 in 7.0 mi NNE 8.1 mph - N/A   Scattered Clouds
10:54 AM 54.0 °F - 43.0 °F 66% 30.23 in 10.0 mi NNE 11.5 mph - N/A   Clear
11:54 AM 59.0 °F - 45.0 °F 60% 30.22 in 10.0 mi NNE 11.5 mph - N/A   Clear
12:54 PM 61.0 °F - 44.1 °F 54% 30.21 in 10.0 mi ENE 11.5 mph - N/A   Clear
1:54 PM 63.0 °F - 43.0 °F 48% 30.19 in 10.0 mi East 12.7 mph - N/A   Clear
2:54 PM 64.9 °F - 42.1 °F 43% 30.16 in 10.0 mi NE 11.5 mph - N/A   Clear
3:54 PM 66.9 °F - 43.0 °F 42% 30.14 in 10.0 mi NNE 10.4 mph - N/A   Clear
4:54 PM 66.9 °F - 43.0 °F 42% 30.12 in 10.0 mi North 9.2 mph - N/A   Clear
5:54 PM 66.9 °F - 39.9 °F 37% 30.10 in 10.0 mi NNE 9.2 mph - N/A   Clear
6:54 PM 64.0 °F - 39.0 °F 40% 30.09 in 10.0 mi ENE 8.1 mph - N/A   Clear
7:54 PM 59.0 °F - 39.9 °F 49% 30.08 in 10.0 mi NE 8.1 mph - N/A   Clear
8:54 PM 53.1 °F - 43.0 °F 69% 30.09 in 10.0 mi NNE 6.9 mph - N/A   Clear
9:54 PM 53.1 °F - 42.1 °F 66% 30.09 in 10.0 mi NNE 5.8 mph - N/A   Clear
10:54 PM 50.0 °F - 41.0 °F 71% 30.08 in 10.0 mi NNE 5.8 mph - N/A   Clear
11:54 PM 50.0 °F - 41.0 °F 71% 30.07 in 10.0 mi NNE 4.6 mph - N/A   Clear